FLOCK 3P-30

Last updated on Wed Feb 14 2018 16:20:26 GMT+0000 (Coordinated Universal Time)

1 41987U 17008AR 18044.69108180 .00001676 00000-0 72245-4 0 9999 2 41987 97.4667 110.3032 0009140 75.3523 284.8727 15.23932903 55093

Satellite not in orbit

FLOCK 3P-30